This is the latest recevied weather packets stored in our database for station/object KB3VSP. If no packets are shown the sender has not sent any weather packets the latest 10 day(s).
| Time | Temp. | Humidity | Pressure | Rain* | Wind** | Luminosity | Snow |
|---|---|---|---|---|---|---|---|
| 1777657886 | 8.89° C | 86% | 1012.3 hPa | 1.27 mm | - | 56 W/m² | - |
| 1777657582 | 8.89° C | 86% | 1012.4 hPa | 0 mm | - | 48 W/m² | - |
| 1777657280 | 8.89° C | 82% | 1012.3 hPa | 1.78 mm | - | 49 W/m² | - |
| 1777656977 | 8.89° C | 82% | 1012 hPa | 1.78 mm | - | 54 W/m² | - |
| 1777656674 | 9.44° C | 84% | 1012 hPa | 0 mm | - | 50 W/m² | - |
| 1777656370 | 9.44° C | 85% | 1012.2 hPa | 0 mm | - | 110 W/m² | - |
| 1777656065 | 9.44° C | 80% | 1012.4 hPa | 0 mm | - | 79 W/m² | - |
| 1777655761 | 9.44° C | 80% | 1012.4 hPa | 0 mm | - | 31 W/m² | - |
| 1777655458 | 9.44° C | 77% | 1012.1 hPa | 0 mm | - | 46 W/m² | - |
| 1777655155 | 10° C | 77% | 1012.4 hPa | 0 mm | - | 78 W/m² | - |
| 1777654852 | 9.44° C | 78% | 1012.3 hPa | 0 mm | - | 158 W/m² | - |
| 1777654550 | 9.44° C | 76% | 1012.4 hPa | 0 mm | - | 74 W/m² | - |
| 1777654247 | 10° C | 77% | 1012.4 hPa | 0 mm | - | 80 W/m² | - |
| 1777653945 | 10° C | 78% | 1012.3 hPa | 0 mm | - | 80 W/m² | - |
| 1777653641 | 10° C | 77% | 1012.5 hPa | 0 mm | - | 117 W/m² | - |
| 1777653338 | 10° C | 79% | 1012.5 hPa | 0 mm | - | 124 W/m² | - |
| 1777653035 | 9.44° C | 79% | 1012.6 hPa | 0 mm | - | 216 W/m² | - |
| 1777652731 | 9.44° C | 79% | 1012.3 hPa | 0 mm | - | 185 W/m² | - |
| 1777652428 | 8.89° C | 77% | 1012.7 hPa | 0 mm | - | 125 W/m² | - |
| 1777652125 | 9.44° C | 81% | 1012.9 hPa | 0 mm | - | 147 W/m² | - |
| 1777651822 | 9.44° C | 79% | 1012.6 hPa | 0 mm | - | 107 W/m² | - |
| 1777651519 | 10° C | 79% | 1012.8 hPa | 0 mm | - | 84 W/m² | - |
| 1777651216 | 9.44° C | 79% | 1012.9 hPa | 0 mm | - | 139 W/m² | - |
| 1777650912 | 9.44° C | 78% | 1012.8 hPa | 0 mm | - | 136 W/m² | - |
| 1777650609 | 9.44° C | 82% | 1012.7 hPa | 0 mm | - | 144 W/m² | - |
* Rain latest hour (hover to see other rain measurements)
** Current wind speed in m/s (hover to see current wind gust speed)